Location: Hanover
(52.3667°N, 9.7167°E)
Time: 04:34:17
(UTC+02:00)

ARIANE 6 FM1 Upper Stage - Pass Details

Date: 25 September 2024
Orbit: 564 x 594 km, 62.0° (Epoch: 06 October)

Event Time Altitude Azimuth Distance (km) Brightness Sun altitude
Rises 22:17:14 0° 266° (W) 2,798 6.9 -27.3°
Reaches altitude 10° 22:19:41 10° 277° (W) 1,907 6.1 -27.6°
Maximum altitude 22:23:32 31° 340° (NNW) 1,055 4.5 -28.0°
Enters shadow 22:24:41 26° 9° (N) 1,163 4.5 -28.2°
